Location: Jodlow
(50.1500°N, 16.7500°E)
Time: 02:02:08
(UTC+02:00)

O/OREOS (USA 219) - Pass Details

Date: 01 April 2023
Orbit: 621 x 646 km, 72.0° (Epoch: 22 May)

Event Time Altitude Azimuth Distance (km) Brightness Sun altitude
Rises 04:13:00 0° 155° (SSE) 2,939 ? -21.1°
Reaches altitude 10° 04:16:12 10° 131° (SE) 2,032 ? -20.7°
Maximum altitude 04:18:39 14° 99° (E) 1,754 ? -20.4°
Drops below altitude 10° 04:21:06 10° 66° (ENE) 2,034 ? -20.1°
Sets 04:24:17 0° 43° (NE) 2,944 ? -19.6°
